Portada
METAR-TAF:

METAR-TAF

Aeroports :

Pekanbaru, Indonèsia

latitud: 00-28N, longitud: 101-27E, altitud: 31 m

Observació

L'informe es va fer fa 1 hora i 39 minuts, a les 12:30 UTC
Vent calma
Temperatura 29°C
Humitat 74%
Pressió 1005 hPa
Visibilitat: 8000 m
Escasses núvols a una alçada de 1500 ft

METAR: WIBB 141230Z 00000KT 8000 FEW015 29/24 Q1005 NOSIG

Hora: 21:09 (14:09 UTC)


TAF: manca

Observacions i pronòstics meteorològics de més de 4000 aeroports (METAR i TAF).

Les estacions disponibles són els punts grocs i vermells al mapa.

Posi el ratolí al punt desitjat per veure el nom de l'estació.

Feu clic per veure les observacions i els pronòstics meteorològics.

Per canviar el mapa: feu clic els botons verds amb una creu de color negre per apropar; al botó verd amb un guió per allunyar la imatge; o en les fletxes verdes per a mapes adjacents.


METAR-TAF: